Regional Weather Roundup
Issued by NWS Newport/Morehead, NC

Current Version | Previous Version | Text Only | Print | Product List | Glossary Off
Versions: 1 2 3 4 5 6 7 8 9 10 11 12 13 14 15 16 17 18 19 20 21 22 23 24 25 26 27 28 29 30 31 32 33 34 35 36 37 38 39 40 41 42 43 44 45 46 47 48 49 50
000 ASUS42 KMHX 290225 RWRMHX WEATHER ROUNDUP FOR EASTERN NORTH CAROLINA NATIONAL WEATHER SERVICE NEWPORT/MOREHEAD CITY NC 1000 PM EDT FRI APR 28 2017 NOTE: "FAIR" INDICATES FEW OR NO CLOUDS BELOW 12,000 FEET WITH NO SIGNIFICANT WEATHER AND/OR OBSTRUCTIONS TO VISIBILITY NCZ015>017-031-032-045>047-102-103-290300- NORTH COAST CITY SKY/WX TMP DP RH WIND PRES REMARKS EDENTON CLEAR 78 73 84 S10 30.11R ELIZABETH CITY CLEAR 77 74 90 S12 30.11R KITTY HAWK CLEAR 74 73 98 CALM 30.12R MANTEO CLEAR 73 72 96 SW13 30.13R $$ NCZ045>047-081-094-103-104-290300- CENTRAL COAST CITY SKY/WX TMP DP RH WIND PRES REMARKS FRISCO CLEAR 75 72 90 SW13 30.16R FOG $$ NCZ095-097-098-100-101-290300- SOUTHERN COAST CITY SKY/WX TMP DP RH WIND PRES REMARKS BEAUFORT CLEAR 74 74 100 S12 30.16R CEDAR ISLAND NOT AVBL JACKSONVILLE MOCLDY 76 75 97 S10 30.13R PINEY ISLAND CLEAR N/A N/A N/A S12 30.15R WILMINGTON PTCLDY 76 73 91 S9 30.15R $$ NCZ011>013-027>030-043-044-078>080-089-090>093-098-290300- COASTAL PLAIN CITY SKY/WX TMP DP RH WIND PRES REMARKS AHOSKIE N/A 75 72 90 S5 30.09R CLINTON CLEAR 77 75 94 S8 30.12R ELIZABETHTOWN CLEAR 77 74 92 S7 30.12R GOLDSBORO CLEAR 78 78 99 S9 30.09R GREENVILLE CLEAR 79 73 83 S12 30.11R HAVELOCK NOT AVBL KENANSVILLE CLOUDY 77 73 88 CALM 30.13R KINSTON CLEAR 77 72 83 S9 30.12R NEW BERN CLOUDY 76 74 93 S9G18 30.14R RICHLANDS CLOUDY 77 73 87 S13 30.14R ROCKY MOUNT CLEAR 78 73 84 S7 30.08R WASHINGTON CLEAR 75 73 92 S8 30.12R WHITEVILLE CLEAR 76 73 91 S7 30.13R $$ AMZ130-135-150-152-154-156-158-170-250-252-270-ANZ085-086-088-633-658-670-290300- MARINE OBSERVATIONS STATION/POSITION TIME TEMP WIND PRES WAVE SWELL AIR SEA DIR/SP/G HT/PER HT/PER (UTC) (F) (DEG/KT/KT) (MB) (FT/S) (FT/S) CHESAPEAKE LIGHT NOT AVBL 64 E VA BEACH 0050 62 58 200/ 14/ 16 1019.7 4/ 8 3/ 8 DUCK 0200 76 60 190/ 12/ 16 1019.2 2 E DUCK 0200 61 N/A 2/ 8 OREGON INLET 0200 74 76 190/ 16/ 19 1020.4 13E OREGON INLT 0148 62 N/A 4/ 7 2/11 HATTERAS CG 0200 74 73 190/ 8/ 12 1021.1 DIAMOND BUOY 0050 77 76 210/ 16/ 17 1020.8 4/ 8 3/ 8 CAPE LOOKOUT 0200 74 190/ 11/ 12 1021.2 BEAUFORT LAB 0200 73 71 200/ 10/ 13 1020.5 30 SE NEW RVR IN 0208 73 200/ 10/ 14 1021.5 30 SE NEW RVR IN 0213 72 N/A 4/ 6 27 SE WRIGHTSVLE 0208 74 73 190/ 10/ 16 1020.6 5 SE WRIGHTSVLE 0208 73 70 200/ 8/ 14 1020.8 225 S CAPE HAT 0150 75 76 140/ 12/ 14 1024.5 3/ 7 3/ 7 41 SE CHARLESTON 0200 75 74 170/ 12/ 14 1020.9 $$

USA.gov is the U.S. government's official web portal to all federal, state and local government web resources and services.